Location: Bocianicha
(51.5066°N, 19.2563°E)
Time: 13:27:33
(UTC+00:00)

ATLAS 5 CENTAUR R/B - Pass Details

Date: 15 June 2025
Orbit: 385 x 1112 km, 63.3° (Epoch: 17 July)

Event Time Altitude Azimuth Distance (km) Brightness Sun altitude
Exits shadow 01:29:53 - 191° (S) 1,659 3.2 -6.8°
Reaches altitude 10° 01:30:30 10° 186° (S) 1,417 2.9 -6.7°
Maximum altitude 01:33:13 29° 123° (ESE) 776 2.2 -6.4°
Drops below altitude 10° 01:36:09 10° 62° (ENE) 1,538 4.9 -6.2°
Sets 01:38:32 0° 51° (NE) 2,498 6.8 -5.9°
